Latest Weather Observations for Ferny Creek

IDV60801

Issued at 1:02 pm EDT Monday 23 January 2017 (issued every 30 minutes, with the page automatically refreshed every 10 minutes)

About weather observations | Map of weather stations | Latest weather observations for VIC | Other Formats
Station Details ID: 086266 Name: FERNY CREEK Lat: -37.87 Lon: 145.35 Height: 512.9 m
Data from the previous 72 hours. | See also: Recent months at Ferny Creek
Date/Time
EDT
Temp
°C
App
Temp
°C
Dew
Point
°C
Rel
Hum
%
Delta-T
°C
Wind Press
QNH
hPa
Press
MSL
hPa
Rain since
9am
mm
Dir  Spd
km/h
Gust
km/h
Spd
kts
Gust
kts
23/12:30pm 28.8 28.5 12.7 37 9.7 N 6 9 3 5 1007.9 1006.3 0.0
23/12:00pm 28.3 27.9 13.0 39 9.2 N 7 15 4 8 1008.1 1006.5 0.0
23/11:30am 28.9 28.8 13.9 39 9.2 NNE 7 15 4 8 1008.3 1006.7 0.0
23/11:00am 28.2 27.5 12.1 37 9.6 NNE 7 17 4 9 1008.6 1007.0 0.0
23/10:30am 27.8 26.4 10.9 35 9.8 NNE 9 19 5 10 1008.9 1007.3 0.0
23/10:00am 26.6 25.4 9.5 34 9.7 N 6 17 3 9 1009.2 1007.6 0.0
23/09:30am 25.8 24.7 8.3 33 9.6 N 4 15 2 8 1009.4 1007.8 0.0
23/09:00am 26.5 24.9 8.0 31 10.2 N 6 17 3 9 1009.5 1007.9 0.0
23/08:30am 25.6 24.1 8.6 34 9.4 NNW 6 13 3 7 1009.6 1008.0 0.0
23/08:00am 24.5 23.7 9.6 39 8.4 N 4 11 2 6 1009.2 1007.6 0.0
23/07:30am 24.8 23.3 8.3 35 9.0 N 6 9 3 5 1009.1 1007.5 0.0
23/07:00am 24.4 22.9 8.4 36 8.8 N 6 13 3 7 1009.5 1007.9 0.0
23/06:30am 24.2 23.0 8.2 36 8.7 NNW 4 11 2 6 1009.4 1007.8 0.0
23/06:00am 24.4 23.3 8.4 36 8.8 NNW 4 9 2 5 1009.4 1007.8 0.0
23/05:30am 23.9 22.9 8.7 38 8.3 NNW 4 6 2 3 1009.4 1007.8 0.0
23/05:00am 24.2 23.0 8.2 36 8.7 N 4 7 2 4 1009.3 1007.7 0.0
23/04:30am 24.1 23.0 8.5 37 8.5 N 4 9 2 5 1009.3 1007.7 0.0
23/04:00am 23.7 22.7 8.9 39 8.2 NNW 4 6 2 3 1009.6 1008.0 0.0
23/03:30am 23.4 22.4 9.0 40 7.9 N 4 7 2 4 1009.6 1008.0 0.0
23/03:00am 22.7 22.1 8.8 41 7.6 NE 2 6 1 3 1009.8 1008.2 0.0
23/02:30am 22.3 21.6 10.1 46 6.8 NE 4 7 2 4 1010.3 1008.8 0.0
23/02:00am 22.1 21.1 10.9 49 6.3 NE 7 13 4 7 1010.5 1009.0 0.0
23/01:30am 21.4 20.6 11.1 52 5.8 NE 6 9 3 5 1010.8 1009.2 0.0
23/01:00am 20.9 20.0 10.7 52 5.7 NE 6 7 3 4 1011.3 1009.7 0.0
23/12:30am 20.9 20.9 11.3 54 5.4 NNE 2 6 1 3 1011.9 1010.4 0.0
23/12:00am 21.6 20.8 11.0 51 6.0 NE 6 9 3 5 1012.2 1010.7 0.0
 
Date/Time
EDT
Temp
°C
App
Temp
°C
Dew
Point
°C
Rel
Hum
%
Delta-T
°C
Wind Press
QNH
hPa
Press
MSL
hPa
Rain since
9am
mm
Dir  Spd
km/h
Gust
km/h
Spd
kts
Gust
kts
22/11:30pm 22.0 21.4 11.7 52 5.9 NE 6 13 3 7 1012.4 1010.9 0.0
22/11:00pm 21.9 21.0 11.3 51 6.0 NE 7 11 4 6 1012.8 1011.2 0.0
22/10:30pm 20.6 20.5 10.7 53 5.5 ENE 2 6 1 3 1013.1 1011.5 0.0
22/10:00pm 20.9 20.1 11.0 53 5.6 ENE 6 9 3 5 1013.0 1011.4 0.0
22/09:30pm 20.6 20.0 12.3 59 4.8 E 7 13 4 7 1013.2 1011.6 0.0
22/09:00pm 21.0 20.5 12.7 59 4.8 ESE 7 11 4 6 1013.2 1011.6 0.0
22/08:30pm 21.3 21.1 13.7 62 4.5 ESE 7 13 4 7 1013.3 1011.7 0.0
22/08:00pm 22.0 22.2 14.1 61 4.7 ESE 6 9 3 5 1013.2 1011.6 0.0
22/07:30pm 22.8 22.8 14.1 58 5.2 ESE 7 13 4 7 1013.0 1011.4 0.0
22/07:00pm 23.3 23.5 14.3 57 5.4 ESE 6 11 3 6 1013.1 1011.5 0.0
22/06:30pm 24.1 24.1 14.2 54 6.0 SE 7 15 4 8 1013.4 1011.8 0.0
22/06:00pm 25.9 26.0 12.7 44 7.8 SE 4 7 2 4 1013.3 1011.7 0.0
22/05:30pm 26.0 25.4 11.7 41 8.3 S 6 13 3 7 1013.5 1012.0 0.0
22/05:00pm 26.3 25.5 11.2 38 8.8 S 6 11 3 6 1013.7 1012.2 0.0
22/04:30pm 26.5 26.4 12.2 41 8.4 ENE 4 9 2 5 1014.0 1012.5 0.0
22/04:00pm 26.3 26.3 12.4 42 8.2 NE 4 7 2 4 1014.3 1012.8 0.0
22/03:30pm 25.6 25.3 12.8 45 7.6 ESE 6 9 3 5 1014.5 1013.0 0.0
22/03:00pm 25.8 25.5 12.6 44 7.8 SSW 6 9 3 5 1014.8 1013.2 0.0
22/02:30pm 25.2 25.2 12.4 45 7.5 SSW 4 7 2 4 1015.0 1013.4 0.0
22/02:00pm 25.1 24.3 10.9 41 8.1 W 6 11 3 6 1015.3 1013.8 0.0
22/01:30pm 24.9 24.8 12.2 45 7.4 E 4 6 2 3 1015.5 1014.0 0.0
22/01:00pm 23.9 23.2 11.3 45 7.2 ENE 6 9 3 5 1015.5 1014.0 0.0
22/12:30pm 23.4 22.5 10.5 44 7.3 ENE 6 9 3 5 1015.8 1014.3 0.0
22/12:00pm 22.4 21.6 11.2 49 6.4 ENE 6 9 3 5 1016.0 1014.5 0.0
22/11:30am 21.5 20.4 10.0 48 6.4 E 6 9 3 5 1016.2 1014.7 0.0
22/11:00am 20.5 19.3 9.4 49 6.1 E 6 7 3 4 1016.4 1014.9 0.0
22/10:30am 19.1 17.6 9.3 53 5.3 ENE 7 11 4 6 1016.5 1015.0 0.0
22/10:00am 18.7 17.4 9.8 56 4.8 ENE 7 11 4 6 1016.9 1015.3 0.0
22/09:30am 18.0 17.0 10.9 63 3.9 E 7 11 4 6 1017.1 1015.6 0.0
22/09:00am 16.8 15.3 8.5 58 4.4 ESE 6 9 3 5 1017.3 1015.8 0.0
22/08:30am 17.3 16.3 9.0 58 4.4 S 4 6 2 3 1017.3 1015.8 0.0
22/08:00am 16.1 15.2 9.1 63 3.7 ENE 4 6 2 3 1016.9 1015.3 0.0
22/07:30am 15.9 15.2 8.6 62 3.8 SE 2 2 1 1 1016.9 1015.3 0.0
22/07:00am 12.4 11.7 7.1 70 2.6 CALM 0 0 0 0 1016.9 1015.3 0.0
22/06:30am 11.3 10.5 6.4 72 2.4 CALM 0 0 0 0 1016.6 1015.1 0.0
22/06:00am 11.3 10.4 6.2 71 2.5 CALM 0 0 0 0 1016.3 1014.8 0.0
22/05:30am 11.3 10.3 5.4 67 2.8 CALM 0 0 0 0 1016.1 1014.6 0.0
22/05:00am 11.8 10.7 5.2 64 3.1 CALM 0 0 0 0 1016.0 1014.5 0.0
22/04:30am 11.6 10.5 5.0 64 3.1 CALM 0 0 0 0 1015.9 1014.4 0.0
22/04:00am 12.2 11.1 5.1 62 3.4 CALM 0 0 0 0 1015.8 1014.3 0.0
22/03:30am 12.1 11.2 6.2 67 2.9 CALM 0 0 0 0 1015.9 1014.4 0.0
22/03:00am 11.7 10.6 7.0 73 2.3 ESE 2 6 1 3 1016.1 1014.6 0.0
22/02:30am 12.0 10.4 7.9 76 2.1 E 6 9 3 5 1016.3 1014.8 0.0
22/02:00am 11.7 10.2 8.4 80 1.7 E 6 9 3 5 1016.4 1014.9 0.0
22/01:30am 11.7 10.1 8.7 82 1.5 ESE 7 11 4 6 1016.5 1015.0 0.0
22/01:00am 11.8 10.3 9.0 83 1.4 ESE 7 11 4 6 1016.7 1015.2 0.0
22/12:30am 11.6 10.1 9.0 84 1.3 ESE 7 11 4 6 1017.0 1015.5 0.0
22/12:00am 11.4 9.9 9.1 86 1.2 ESE 7 11 4 6 1017.1 1015.6 0.0
 
Date/Time
EDT
Temp
°C
App
Temp
°C
Dew
Point
°C
Rel
Hum
%
Delta-T
°C
Wind Press
QNH
hPa
Press
MSL
hPa
Rain since
9am
mm
Dir  Spd
km/h
Gust
km/h
Spd
kts
Gust
kts
21/11:30pm 11.7 10.5 9.6 87 1.1 ESE 6 11 3 6 1017.2 1015.7 0.0
21/11:00pm 11.9 10.7 9.6 86 1.2 ESE 6 11 3 6 1017.4 1015.9 0.0
21/10:30pm 12.6 10.9 8.3 75 2.2 SE 7 13 4 7 1017.5 1016.0 0.0
21/10:00pm 12.4 11.0 8.7 78 1.9 ESE 6 9 3 5 1017.4 1015.9 0.0
21/09:30pm 12.5 11.3 9.7 83 1.5 ESE 6 11 3 6 1017.4 1015.9 0.0
21/09:00pm 13.0 12.2 9.6 80 1.8 ESE 4 6 2 3 1017.3 1015.8 0.0
21/08:30pm 14.1 13.3 9.5 74 2.4 SE 4 7 2 4 1017.1 1015.6 0.0
21/08:00pm 14.9 13.7 9.5 70 2.9 SE 6 9 3 5 1016.7 1015.2 0.0
21/07:30pm 15.4 14.5 9.1 66 3.3 SSE 4 9 2 5 1016.6 1015.1 0.0
21/07:00pm 15.9 15.0 9.3 65 3.5 ESE 4 11 2 6 1016.3 1014.8 0.0
21/06:30pm 16.5 15.2 9.2 62 3.9 ESE 6 15 3 8 1016.0 1014.5 0.0
21/06:00pm 17.5 16.4 9.9 61 4.1 SE 6 11 3 6 1016.0 1014.5 0.0
21/05:30pm 17.4 16.1 9.8 61 4.1 ESE 7 15 4 8 1016.1 1014.6 0.0
21/05:00pm 16.1 14.8 9.3 64 3.6 ESE 6 11 3 6 1016.2 1014.7 0.0
21/04:30pm 16.8 16.0 9.7 63 3.8 SE 4 9 2 5 1016.1 1014.6 0.0
21/04:00pm 16.9 15.7 9.6 62 3.9 SE 6 11 3 6 1016.2 1014.7 0.0
21/03:30pm 16.9 15.8 10.7 67 3.4 ESE 7 15 4 8 1016.2 1014.7 0.0
21/03:00pm 17.5 16.6 11.5 68 3.3 ESE 7 17 4 9 1016.2 1014.7 0.0
21/02:30pm 16.5 15.2 9.9 65 3.6 ESE 7 13 4 7 1016.3 1014.8 0.0
21/02:00pm 16.3 15.3 10.2 67 3.3 S 6 13 3 7 1016.5 1015.0 0.0
21/01:30pm 16.8 15.6 10.4 66 3.5 SW 7 17 4 9 1016.4 1014.9 0.0
21/01:00pm 16.4 15.3 9.8 65 3.5 SSE 6 13 3 7 1016.5 1015.0 0.0
21/12:30pm 16.0 14.5 8.5 61 3.9 SW 6 9 3 5 1016.4 1014.9 0.0
21/12:00pm 16.5 15.1 9.0 61 4.0 SSW 6 19 3 10 1016.2 1014.7 0.0
21/11:30am 14.7 13.2 8.4 66 3.3 ESE 6 13 3 7 1016.2 1014.7 0.0
21/11:00am 15.1 14.4 9.9 71 2.8 ESE 4 7 2 4 1016.0 1014.5 0.0
21/10:30am 14.0 13.0 8.8 71 2.7 ESE 4 11 2 6 1015.9 1014.4 0.0
21/10:00am 13.7 12.1 8.1 69 2.9 S 6 13 3 7 1015.6 1014.1 0.0
21/09:30am 14.3 13.4 9.1 71 2.7 SSE 4 9 2 5 1015.4 1013.9 0.0
21/09:00am 12.0 11.0 8.7 80 1.7 ESE 4 7 2 4 1015.3 1013.8 5.0
21/08:30am 11.4 10.3 8.3 81 1.6 ESE 4 7 2 4 1014.8 1013.2 5.0
21/08:00am 10.9 10.1 8.1 83 1.4 ESE 2 6 1 3 1014.2 1012.7 5.0
21/07:30am 10.6 9.4 8.2 85 1.2 E 4 7 2 4 1013.8 1012.3 5.0
21/07:00am 10.1 9.1 7.5 84 1.3 E 2 7 1 4 1013.4 1011.8 5.0
21/06:30am 9.8 8.4 7.1 83 1.3 E 4 7 2 4 1012.9 1011.3 5.0
21/06:00am 9.2 8.0 6.6 84 1.2 SE 2 7 1 4 1012.5 1011.0 5.0
21/05:30am 9.2 7.7 6.8 85 1.2 S 4 6 2 3 1012.1 1010.6 5.0
21/05:00am 9.5 8.4 6.9 84 1.3 S 2 6 1 3 1011.8 1010.3 5.0
21/04:30am 9.9 8.8 7.0 82 1.4 W 2 6 1 3 1011.5 1009.9 5.0
21/04:00am 10.0 8.5 6.9 81 1.5 SW 4 13 2 7 1011.3 1009.7 5.0
21/03:30am 10.1 8.8 7.5 84 1.3 S 4 9 2 5 1011.2 1009.6 5.0
21/03:00am 10.1 9.4 8.4 89 0.9 WSW 2 6 1 3 1010.9 1009.3 5.0
21/02:30am 10.2 9.5 8.6 90 0.8 E 2 4 1 2 1010.7 1009.1 5.0
21/02:00am 10.4 9.3 8.3 87 1.1 S 4 13 2 7 1010.4 1008.9 4.8
21/01:30am 10.4 9.4 8.7 89 0.9 SSE 4 6 2 3 1010.3 1008.8 4.8
21/01:00am 10.4 9.4 8.7 89 0.9 S 4 9 2 5 1010.1 1008.6 4.8
21/12:30am 10.6 9.4 8.2 85 1.2 SSE 4 7 2 4 1010.0 1008.4 4.8
21/12:00am 10.7 9.2 8.3 85 1.2 WSW 6 15 3 8 1009.8 1008.2 4.8
 
Date/Time
EDT
Temp
°C
App
Temp
°C
Dew
Point
°C
Rel
Hum
%
Delta-T
°C
Wind Press
QNH
hPa
Press
MSL
hPa
Rain since
9am
mm
Dir  Spd
km/h
Gust
km/h
Spd
kts
Gust
kts
20/11:30pm 10.7 9.2 8.3 85 1.2 SSW 6 11 3 6 1009.5 1007.9 4.8
20/11:00pm 10.7 9.2 8.5 86 1.1 SW 6 11 3 6 1009.4 1007.8 4.8
20/10:30pm 10.6 9.4 8.2 85 1.2 SW 4 11 2 6 1009.3 1007.7 4.8
20/10:00pm 10.9 9.4 8.3 84 1.3 WSW 6 15 3 8 1009.4 1007.8 4.8
20/09:30pm 11.0 9.5 8.6 85 1.2 WSW 6 17 3 9 1009.0 1007.4 4.8
20/09:00pm 11.4 9.9 9.3 87 1.1 SW 7 19 4 10 1008.8 1007.2 4.8
20/08:30pm 11.6 9.8 9.3 86 1.2 SW 9 22 5 12 1008.3 1006.7 4.8
20/08:00pm 11.7 9.9 9.6 87 1.1 SW 9 20 5 11 1007.8 1006.2 4.8
20/07:30pm 11.8 9.7 9.9 88 1.0 WSW 11 28 6 15 1007.1 1005.5 4.8
20/07:00pm 12.2 10.9 9.9 86 1.2 WSW 7 17 4 9 1006.8 1005.2 4.8
20/06:30pm 12.3 10.3 10.0 86 1.2 WSW 11 32 6 17 1006.1 1004.5 4.8
20/06:00pm 12.8 10.1 10.5 86 1.2 WSW 15 32 8 17 1005.6 1004.0 4.8
20/05:30pm 12.9 10.8 11.1 89 1.0 WSW 13 28 7 15 1005.1 1003.5 4.8
20/05:00pm 12.8 10.4 11.4 91 0.8 WSW 15 35 8 19 1004.5 1002.8 4.8
20/04:30pm 12.9 11.5 12.1 95 0.4 WSW 11 24 6 13 1003.9 1002.3 4.8
20/04:00pm 13.4 11.3 11.3 87 1.1 WSW 13 24 7 13 1003.3 1001.7 4.6
20/03:30pm 13.8 11.7 11.0 83 1.5 WSW 13 32 7 17 1002.7 1001.0 4.4
20/03:00pm 14.6 13.0 11.7 83 1.6 W 11 26 6 14 1002.2 1000.6 4.4
20/02:30pm 14.7 12.8 11.7 82 1.7 WSW 13 30 7 16 1002.2 1000.6 4.4
20/02:00pm 14.1 12.4 11.1 82 1.6 W 11 28 6 15 1001.9 1000.3 4.4
20/01:30pm 13.7 11.9 13.4 98 0.2 WSW 15 37 8 20 1001.5 999.8 4.4

Other Formats:

Comma delimited format used in spreadsheet applications
http://www.bom.gov.au/fwo/IDV60801/IDV60801.94872.axf

JavaScript Object Notation format (JSON) in row-major order
http://www.bom.gov.au/fwo/IDV60801/IDV60801.94872.json